Content
SEND FEEDBACK

Daily
Averages
Monthly
Summary
United States of America

DALHART - AIRPORT, TEXAS


Home > North America > United States > Texas
Elevation: 4000 feet     Latitude: 36 01N     Longitude: 102 37W

WEATHER
 
SELECT A DAY
Number of Records: 185,920;   Date Range: 1/1/95 - 7/29/14
 
SHARE

PRINT THIS DATA

[ ← Previous Day ]
WEATHER ALMANAC - JANUARY 23, 2013
[ Next Day → ]
[ °C ]   °F
Weather ElementAverageHighLow
Temperature45.4 °F71.1 °F (2:53 pm)27 °F (2:53 am)
Dewpoint14.3 °F21.9 °F (10:53 am)3 °F (12:53 pm)
Humidity36.6 %72 % (2:53 am)7 % (12:53 pm)
Barometer30.14 in30.21 in (7:53 am)30.07 in (2:53 pm)
Wind Speed8.5 mph11.5 mph (8:53 am)
Weather ElementAverage
Visibility10 mi
Wind DirectionSSW (219.1 °)

Weather ElementTotal
Precipitation---
Heating Degree Days16 (Base 65)
Averaged from 23 records on January 23, 2013
WEATHER CONDITIONS BREAKOUT
WIND DIRECTION BREAKOUT
WEATHER BY HOUR - JANUARY 23, 2013
[ °C ]   °F
Local TimeTemperatureDewpointHumidityBarometerVisibilityWind DirectionWind SpeedGust SpeedPrecipitationEventsConditions
1:53 AM30.0 °F19.9 °F66 %30.14 in10.0 miNNW (340°)9.2 mphClear
2:53 AM27.0 °F19.0 °F72 %30.14 in10.0 miNNW (330°)6.9 mphClear
3:53 AM28.9 °F18.0 °F64 %30.13 in10.0 miNW (320°)9.2 mphClear
4:53 AM27.0 °F18.0 °F69 %30.14 in10.0 miWNW (290°)6.9 mphClear
5:53 AM27.0 °F17.1 °F66 %30.16 in10.0 miNW (320°)10.4 mphClear
6:53 AM30.0 °F16.0 °F56 %30.19 in10.0 miWNW (300°)10.4 mphClear
7:53 AM30.9 °F15.1 °F52 %30.21 in10.0 miNW (310°)9.2 mphClear
8:53 AM33.1 °F17.1 °F52 %30.21 in10.0 miWNW (300°)11.5 mphClear
9:53 AM44.1 °F19.0 °F37 %30.21 in10.0 miNW (320°)9.2 mphClear
10:53 AM54.0 °F21.9 °F29 %30.20 in10.0 miCalmClear
11:53 AM66.0 °F16.0 °F15 %30.17 in10.0 miWSW (240°)4.6 mphClear
12:53 PM70.0 °F3.0 °F7 %30.13 in10.0 miSW (230°)6.9 mphClear
1:53 PM70.0 °F17.1 °F13 %30.09 in10.0 miSouth (190°)10.4 mphClear
2:53 PM71.1 °F12.0 °F10 %30.07 in10.0 miSouth (190°)11.5 mphClear
3:53 PM68.0 °F10.4 °F11 %30.11 in10.0 miSSW (200°)11.5 mphClear
4:53 PM70.0 °F5.0 °F8 %30.08 in10.0 miSSW (200°)10.4 mphClear
5:53 PM59.0 °F8.1 °F13 %30.11 in10.0 miSSW (200°)9.2 mphClear
6:53 PM44.1 °F10.9 °F26 %30.14 in10.0 miSSW (200°)9.2 mphClear
7:53 PM43.0 °F12.0 °F28 %30.14 in10.0 miNorthClear
8:53 PM43.0 °F10.0 °F26 %30.14 in10.0 miSSW (200°)8.1 mphClear
9:53 PM35.1 °F12.0 °F39 %30.13 in10.0 miNorth (10°)3.5 mphClear
10:53 PM37.0 °F15.1 °F41 %30.10 in10.0 miNNW (330°)8.1 mphClear
11:53 PM37.0 °F15.1 °F41 %30.09 in10.0 miNNE (20°)11.5 mphClear
Hourly data recorded from KDHT, located miles away from Dalhart - Airport, Texas







STORIES FROM OUR PARTNERS